LGR888 GOOY-GBYD

Flight info

Callsign LGR888
Flight time 1h 15m
Altitude 4000
Route OY504 DCT NERSO DCT BD603 DCT ERSOP DCT GUPAK
Aircraft R66/L-SFG/C

Departure

Time 2026-04-23 06:49
Airport Léopold Sédar Senghor International Airport (GOOY)

Arrival

Time 2026-04-23 08:04
Airport Banjul International Airport (GBYD)
Time Latitude Longitude Altitude Speed Heading
2026-04-23 06:33 14.73553 -17.48736 84 ft 0 kts 121°
2026-04-23 06:42 14.73535 -17.48715 106 ft 14 kts 138°
2026-04-23 06:42 14.73507 -17.48610 104 ft 13 kts 126°
2026-04-23 06:43 14.73483 -17.48523 102 ft 11 kts 100°
2026-04-23 06:43 14.73504 -17.48467 115 ft 12 kts 36°
2026-04-23 06:43 14.73667 -17.48425 148 ft 30 kts 28°
2026-04-23 06:43 14.73827 -17.48392 273 ft 19 kts 20°
2026-04-23 06:44 14.73985 -17.48476 298 ft 35 kts 301°
2026-04-23 06:44 14.74044 -17.48666 284 ft 16 kts 11°
2026-04-23 06:44 14.74174 -17.48692 238 ft 15 kts 52°
2026-04-23 06:44 14.74279 -17.48566 176 ft 37 kts 102°
2026-04-23 06:45 14.74320 -17.48243 132 ft 46 kts 112°
2026-04-23 06:45 14.74255 -17.47935 153 ft 47 kts 182°
2026-04-23 06:45 14.73950 -17.47830 147 ft 55 kts 214°
2026-04-23 06:45 14.73526 -17.47819 187 ft 58 kts 199°
2026-04-23 06:46 14.73198 -17.47737 190 ft 43 kts 196°
2026-04-23 06:46 14.72916 -17.47702 152 ft 41 kts 203°
2026-04-23 06:46 14.72709 -17.47680 98 ft 21 kts 195°
2026-04-23 06:46 14.72686 -17.47656 85 ft 0 kts 221°
2026-04-23 06:47 14.72679 -17.47657 90 ft 3 kts 265°
2026-04-23 06:47 14.72784 -17.47694 111 ft 45 kts 348°
2026-04-23 06:48 14.73198 -17.47758 307 ft 57 kts 16°
2026-04-23 06:48 14.73585 -17.47804 519 ft 57 kts 12°
2026-04-23 06:48 14.74062 -17.47890 486 ft 88 kts 353°
2026-04-23 06:48 14.74652 -17.48157 514 ft 96 kts 328°
2026-04-23 06:49 14.75094 -17.48693 537 ft 101 kts 305°
2026-04-23 06:49 14.75269 -17.49398 587 ft 102 kts 290°
2026-04-23 06:49 14.75695 -17.49911 689 ft 92 kts 332°
2026-04-23 06:49 14.76334 -17.49938 781 ft 95 kts 12°
2026-04-23 06:50 14.76946 -17.49704 903 ft 91 kts 13°
2026-04-23 06:50 14.77547 -17.49520 1041 ft 91 kts 10°
2026-04-23 06:50 14.78177 -17.49370 1161 ft 94 kts
2026-04-23 06:50 14.78829 -17.49248 1279 ft 94 kts
2026-04-23 06:51 14.79474 -17.49158 1400 ft 93 kts
2026-04-23 06:51 14.80128 -17.49087 1523 ft 93 kts
2026-04-23 06:51 14.80767 -17.49036 1641 ft 91 kts
2026-04-23 06:51 14.81394 -17.49065 1763 ft 90 kts 355°
2026-04-23 06:52 14.82024 -17.49112 1884 ft 89 kts 353°
2026-04-23 06:52 14.82642 -17.49164 2012 ft 89 kts 353°
2026-04-23 06:52 14.83262 -17.49223 2133 ft 89 kts 354°
2026-04-23 06:52 14.83888 -17.49286 2257 ft 90 kts 353°
2026-04-23 06:53 14.84526 -17.49355 2378 ft 91 kts 353°
2026-04-23 06:53 14.85159 -17.49427 2498 ft 92 kts 352°
2026-04-23 06:53 14.85796 -17.49502 2616 ft 92 kts 352°
2026-04-23 06:53 14.86411 -17.49693 2717 ft 93 kts 350°
2026-04-23 06:54 14.87055 -17.49750 2837 ft 93 kts 353°
2026-04-23 06:54 14.87704 -17.49812 2958 ft 94 kts 353°
2026-04-23 06:54 14.88360 -17.49879 3079 ft 93 kts 352°
2026-04-23 06:54 14.89010 -17.49952 3196 ft 93 kts 352°
2026-04-23 06:55 14.89659 -17.50026 3313 ft 94 kts 351°
2026-04-23 06:55 14.90312 -17.50106 3433 ft 94 kts 351°
2026-04-23 06:55 14.90973 -17.50187 3554 ft 94 kts 351°
2026-04-23 06:55 14.91625 -17.50269 3672 ft 94 kts 351°
2026-04-23 06:56 14.92273 -17.50174 3764 ft 99 kts 22°
2026-04-23 06:56 14.92708 -17.49599 3853 ft 108 kts 65°
2026-04-23 06:56 14.92850 -17.48811 3895 ft 114 kts 75°
2026-04-23 06:56 14.92971 -17.47974 3900 ft 119 kts 75°
2026-04-23 06:57 14.93088 -17.47123 3902 ft 120 kts 75°
2026-04-23 06:57 14.93205 -17.46262 3903 ft 121 kts 76°
2026-04-23 06:57 14.93320 -17.45404 3904 ft 121 kts 76°
2026-04-23 06:57 14.93434 -17.44543 3904 ft 120 kts 76°
2026-04-23 06:58 14.93545 -17.43678 3905 ft 120 kts 76°
2026-04-23 06:58 14.93657 -17.42819 3904 ft 120 kts 76°
2026-04-23 06:58 14.93663 -17.41953 3878 ft 126 kts 97°
2026-04-23 06:58 14.93201 -17.41182 3893 ft 126 kts 124°
2026-04-23 06:59 14.92625 -17.40485 3900 ft 127 kts 126°
2026-04-23 06:59 14.92043 -17.39791 3901 ft 128 kts 127°
2026-04-23 06:59 14.91458 -17.39092 3901 ft 128 kts 127°
2026-04-23 06:59 14.90864 -17.38385 3902 ft 129 kts 127°
2026-04-23 07:00 14.90275 -17.37686 3900 ft 129 kts 127°
2026-04-23 07:00 14.89683 -17.36981 3898 ft 129 kts 127°
2026-04-23 07:00 14.89089 -17.36275 3895 ft 129 kts 127°
2026-04-23 07:00 14.88496 -17.35574 3894 ft 129 kts 126°
2026-04-23 07:01 14.87911 -17.34875 3895 ft 129 kts 126°
2026-04-23 07:01 14.87316 -17.34170 3895 ft 129 kts 127°
2026-04-23 07:01 14.86729 -17.33470 3894 ft 129 kts 126°
2026-04-23 07:01 14.86132 -17.32762 3893 ft 129 kts 127°
2026-04-23 07:02 14.85543 -17.32062 3891 ft 129 kts 126°
2026-04-23 07:02 14.84961 -17.31368 3897 ft 128 kts 127°
2026-04-23 07:02 14.84374 -17.30671 3922 ft 128 kts 127°
2026-04-23 07:02 14.83784 -17.29970 3943 ft 128 kts 127°
2026-04-23 07:03 14.83201 -17.29277 3961 ft 127 kts 127°
2026-04-23 07:03 14.82620 -17.28588 3985 ft 127 kts 127°
2026-04-23 07:03 14.82035 -17.27894 4006 ft 127 kts 127°
2026-04-23 07:03 14.81459 -17.27210 4027 ft 127 kts 127°
2026-04-23 07:04 14.80871 -17.26515 4049 ft 127 kts 126°
2026-04-23 07:04 14.80288 -17.25823 4072 ft 127 kts 126°
2026-04-23 07:04 14.79707 -17.25131 4091 ft 127 kts 126°
2026-04-23 07:04 14.79123 -17.24440 4114 ft 126 kts 126°
2026-04-23 07:05 14.78546 -17.23755 4137 ft 127 kts 126°
2026-04-23 07:05 14.77965 -17.23065 4159 ft 127 kts 126°
2026-04-23 07:05 14.77385 -17.22374 4182 ft 126 kts 126°
2026-04-23 07:05 14.76806 -17.21688 4204 ft 126 kts 126°
2026-04-23 07:06 14.76222 -17.20994 4171 ft 130 kts 126°
2026-04-23 07:06 14.75621 -17.20278 4116 ft 133 kts 126°
2026-04-23 07:06 14.75011 -17.19552 4061 ft 133 kts 126°
2026-04-23 07:06 14.74398 -17.18824 4008 ft 134 kts 126°
2026-04-23 07:07 14.73782 -17.18091 3954 ft 134 kts 126°
2026-04-23 07:07 14.73171 -17.17368 3902 ft 135 kts 126°
2026-04-23 07:07 14.72546 -17.16628 3848 ft 135 kts 126°
2026-04-23 07:07 14.71933 -17.15899 3797 ft 135 kts 126°
2026-04-23 07:08 14.71312 -17.15162 3743 ft 136 kts 126°
2026-04-23 07:08 14.70687 -17.14421 3690 ft 135 kts 126°
2026-04-23 07:08 14.70072 -17.13693 3638 ft 136 kts 126°
2026-04-23 07:08 14.69450 -17.12955 3584 ft 136 kts 126°
2026-04-23 07:09 14.68820 -17.12209 3531 ft 136 kts 126°
2026-04-23 07:09 14.68202 -17.11474 3461 ft 134 kts 125°
2026-04-23 07:09 14.67600 -17.10755 3394 ft 128 kts 125°
2026-04-23 07:09 14.67044 -17.10095 3468 ft 113 kts 126°
2026-04-23 07:10 14.66501 -17.09452 3404 ft 121 kts 125°
2026-04-23 07:10 14.65940 -17.08785 3348 ft 123 kts 125°
2026-04-23 07:10 14.65370 -17.08110 3292 ft 125 kts 124°
2026-04-23 07:10 14.64790 -17.07421 3235 ft 125 kts 124°
2026-04-23 07:11 14.64217 -17.06742 3179 ft 126 kts 124°
2026-04-23 07:11 14.63516 -17.06180 3078 ft 131 kts 150°
2026-04-23 07:11 14.62681 -17.05811 3023 ft 130 kts 154°
2026-04-23 07:12 14.61006 -17.05109 2914 ft 129 kts 154°
2026-04-23 07:12 14.60174 -17.04761 2899 ft 126 kts 154°
2026-04-23 07:12 14.59367 -17.04422 2896 ft 123 kts 154°
2026-04-23 07:12 14.58573 -17.04091 2893 ft 122 kts 154°
2026-04-23 07:13 14.57781 -17.03760 2891 ft 122 kts 154°
2026-04-23 07:13 14.56998 -17.03433 2892 ft 122 kts 154°
2026-04-23 07:13 14.56200 -17.03100 2893 ft 122 kts 154°
2026-04-23 07:13 14.55414 -17.02770 2891 ft 122 kts 153°
2026-04-23 07:14 14.54625 -17.02439 2892 ft 122 kts 154°
2026-04-23 07:14 14.53823 -17.02103 2895 ft 123 kts 154°
2026-04-23 07:14 14.53029 -17.01771 2893 ft 123 kts 154°
2026-04-23 07:14 14.52239 -17.01438 2890 ft 123 kts 154°
2026-04-23 07:15 14.51439 -17.01102 2901 ft 124 kts 155°
2026-04-23 07:15 14.50618 -17.00761 2894 ft 128 kts 155°
2026-04-23 07:15 14.49785 -17.00414 2892 ft 129 kts 155°
2026-04-23 07:15 14.48950 -17.00066 2891 ft 129 kts 154°
2026-04-23 07:16 14.48104 -16.99712 2895 ft 130 kts 154°
2026-04-23 07:16 14.47257 -16.99359 2896 ft 131 kts 154°
2026-04-23 07:16 14.46414 -16.99006 2898 ft 132 kts 155°
2026-04-23 07:16 14.45573 -16.98655 2946 ft 129 kts 155°
2026-04-23 07:17 14.44727 -16.98301 2956 ft 130 kts 154°
2026-04-23 07:17 14.43891 -16.97951 2979 ft 130 kts 154°
2026-04-23 07:17 14.43045 -16.97598 3004 ft 129 kts 154°
2026-04-23 07:17 14.42220 -16.97253 3042 ft 127 kts 155°
2026-04-23 07:18 14.41392 -16.96906 3052 ft 129 kts 155°
2026-04-23 07:18 14.40545 -16.96550 3030 ft 131 kts 154°
2026-04-23 07:18 14.39688 -16.96191 3024 ft 131 kts 155°
2026-04-23 07:18 14.38844 -16.95836 3011 ft 132 kts 155°
2026-04-23 07:19 14.37990 -16.95480 3006 ft 131 kts 155°
2026-04-23 07:19 14.37138 -16.95124 3008 ft 131 kts 155°
2026-04-23 07:19 14.36291 -16.94769 3010 ft 131 kts 154°
2026-04-23 07:19 14.35445 -16.94415 3008 ft 131 kts 155°
2026-04-23 07:20 14.34595 -16.94060 3007 ft 130 kts 154°
2026-04-23 07:20 14.33751 -16.93707 3009 ft 131 kts 154°
2026-04-23 07:20 14.32902 -16.93352 3010 ft 131 kts 154°
2026-04-23 07:20 14.32041 -16.92993 3009 ft 131 kts 154°
2026-04-23 07:21 14.31197 -16.92639 3009 ft 131 kts 154°
2026-04-23 07:21 14.30347 -16.92284 3010 ft 131 kts 154°
2026-04-23 07:21 14.29504 -16.91930 3009 ft 131 kts 154°
2026-04-23 07:21 14.28649 -16.91572 3008 ft 131 kts 154°
2026-04-23 07:22 14.27808 -16.91221 3008 ft 131 kts 154°
2026-04-23 07:22 14.26963 -16.90867 3007 ft 131 kts 154°
2026-04-23 07:22 14.26112 -16.90511 3007 ft 130 kts 155°
2026-04-23 07:22 14.25265 -16.90157 3007 ft 131 kts 155°
2026-04-23 07:23 14.24424 -16.89805 3007 ft 131 kts 155°
2026-04-23 07:23 14.23564 -16.89446 3006 ft 131 kts 155°
2026-04-23 07:23 14.22724 -16.89096 3007 ft 131 kts 154°
2026-04-23 07:23 14.21865 -16.88738 3006 ft 131 kts 154°
2026-04-23 07:24 14.21020 -16.88385 3008 ft 131 kts 154°
2026-04-23 07:24 14.20166 -16.88028 3006 ft 132 kts 154°
2026-04-23 07:24 14.19310 -16.87671 3006 ft 132 kts 154°
2026-04-23 07:24 14.18464 -16.87317 3005 ft 131 kts 154°
2026-04-23 07:25 14.17605 -16.86957 3007 ft 131 kts 154°
2026-04-23 07:25 14.16758 -16.86603 3002 ft 131 kts 154°
2026-04-23 07:25 14.15913 -16.86249 2998 ft 131 kts 154°
2026-04-23 07:25 14.15067 -16.85895 2995 ft 131 kts 155°
2026-04-23 07:26 14.14217 -16.85541 2993 ft 131 kts 155°
2026-04-23 07:26 14.13368 -16.85187 2994 ft 131 kts 155°
2026-04-23 07:26 14.12514 -16.84831 2993 ft 131 kts 154°
2026-04-23 07:26 14.11663 -16.84476 2992 ft 132 kts 155°
2026-04-23 07:27 14.10811 -16.84121 3023 ft 125 kts 152°
2026-04-23 07:27 14.10012 -16.83791 3019 ft 133 kts 154°
2026-04-23 07:27 14.09147 -16.83429 2996 ft 133 kts 154°
2026-04-23 07:27 14.08292 -16.83071 2992 ft 132 kts 154°
2026-04-23 07:28 14.07438 -16.82714 2989 ft 132 kts 154°
2026-04-23 07:28 14.06588 -16.82359 2990 ft 131 kts 154°
2026-04-23 07:28 14.05725 -16.81998 2960 ft 132 kts 154°
2026-04-23 07:28 14.04873 -16.81641 2933 ft 132 kts 153°
2026-04-23 07:29 14.04024 -16.81286 2909 ft 132 kts 154°
2026-04-23 07:29 14.03159 -16.80925 2882 ft 132 kts 154°
2026-04-23 07:29 14.02299 -16.80566 2856 ft 133 kts 154°
2026-04-23 07:29 14.01437 -16.80205 2832 ft 134 kts 154°
2026-04-23 07:30 14.00567 -16.79843 2805 ft 134 kts 154°
2026-04-23 07:30 13.99690 -16.79478 2781 ft 134 kts 154°
2026-04-23 07:30 13.98820 -16.79115 2758 ft 135 kts 154°
2026-04-23 07:30 13.97944 -16.78751 2733 ft 135 kts 153°
2026-04-23 07:31 13.97069 -16.78385 2709 ft 135 kts 154°
2026-04-23 07:31 13.96195 -16.78021 2686 ft 135 kts 153°
2026-04-23 07:31 13.95326 -16.77659 2661 ft 134 kts 154°
2026-04-23 07:31 13.94459 -16.77297 2637 ft 134 kts 154°
2026-04-23 07:32 13.93579 -16.76930 2614 ft 134 kts 154°
2026-04-23 07:32 13.92704 -16.76565 2591 ft 135 kts 153°
2026-04-23 07:32 13.91830 -16.76201 2566 ft 135 kts 153°
2026-04-23 07:32 13.90959 -16.75838 2542 ft 136 kts 153°
2026-04-23 07:33 13.90071 -16.75468 2518 ft 136 kts 153°
2026-04-23 07:33 13.89190 -16.75101 2491 ft 136 kts 154°
2026-04-23 07:33 13.88311 -16.74736 2463 ft 137 kts 154°
2026-04-23 07:33 13.87423 -16.74366 2435 ft 137 kts 154°
2026-04-23 07:34 13.86531 -16.73995 2404 ft 137 kts 153°
2026-04-23 07:34 13.85643 -16.73625 2373 ft 137 kts 153°
2026-04-23 07:34 13.84764 -16.73258 2345 ft 136 kts 153°
2026-04-23 07:34 13.83876 -16.72888 2317 ft 136 kts 153°
2026-04-23 07:35 13.82990 -16.72520 2288 ft 137 kts 153°
2026-04-23 07:35 13.82098 -16.72149 2252 ft 137 kts 153°
2026-04-23 07:35 13.81212 -16.71781 2221 ft 138 kts 153°
2026-04-23 07:35 13.80309 -16.71405 2191 ft 138 kts 153°
2026-04-23 07:36 13.79413 -16.71031 2161 ft 138 kts 153°
2026-04-23 07:36 13.78519 -16.70659 2130 ft 139 kts 153°
2026-04-23 07:36 13.77611 -16.70282 2097 ft 139 kts 153°
2026-04-23 07:36 13.76715 -16.69908 2070 ft 139 kts 153°
2026-04-23 07:37 13.75816 -16.69535 2037 ft 140 kts 153°
2026-04-23 07:37 13.74905 -16.69155 2006 ft 139 kts 153°
2026-04-23 07:37 13.74007 -16.68782 2004 ft 137 kts 154°
2026-04-23 07:37 13.73116 -16.68412 2000 ft 137 kts 153°
2026-04-23 07:38 13.72241 -16.68048 2001 ft 136 kts 153°
2026-04-23 07:38 13.71356 -16.67680 1998 ft 136 kts 153°
2026-04-23 07:38 13.70476 -16.67316 2000 ft 136 kts 153°
2026-04-23 07:38 13.69596 -16.66951 1999 ft 135 kts 153°
2026-04-23 07:39 13.68719 -16.66586 2000 ft 136 kts 153°
2026-04-23 07:39 13.67824 -16.66213 2000 ft 137 kts 153°
2026-04-23 07:39 13.66942 -16.65848 2000 ft 137 kts 153°
2026-04-23 07:39 13.66046 -16.65474 2002 ft 137 kts 153°
2026-04-23 07:40 13.65167 -16.65108 2003 ft 137 kts 153°
2026-04-23 07:40 13.64274 -16.64736 2005 ft 136 kts 153°
2026-04-23 07:40 13.63400 -16.64373 2009 ft 136 kts 153°
2026-04-23 07:40 13.62518 -16.64006 2008 ft 136 kts 153°
2026-04-23 07:41 13.61627 -16.63636 2008 ft 136 kts 154°
2026-04-23 07:41 13.60752 -16.63274 2009 ft 136 kts 153°
2026-04-23 07:41 13.59866 -16.62906 2004 ft 136 kts 153°
2026-04-23 07:41 13.58982 -16.62540 2006 ft 136 kts 153°
2026-04-23 07:42 13.58111 -16.62177 2006 ft 136 kts 153°
2026-04-23 07:42 13.57219 -16.61807 2003 ft 136 kts 153°
2026-04-23 07:42 13.56343 -16.61442 2005 ft 136 kts 153°
2026-04-23 07:42 13.55452 -16.61072 2004 ft 136 kts 153°
2026-04-23 07:43 13.54570 -16.60706 2001 ft 136 kts 153°
2026-04-23 07:43 13.53693 -16.60340 2004 ft 136 kts 153°
2026-04-23 07:43 13.52809 -16.59973 2003 ft 136 kts 154°
2026-04-23 07:43 13.51930 -16.59608 2004 ft 136 kts 154°
2026-04-23 07:44 13.51051 -16.59245 2000 ft 136 kts 154°
2026-04-23 07:44 13.50168 -16.58877 2000 ft 136 kts 154°
2026-04-23 07:44 13.49287 -16.58515 1999 ft 136 kts 154°
2026-04-23 07:44 13.48399 -16.58150 1997 ft 136 kts 154°
2026-04-23 07:45 13.47519 -16.57786 1996 ft 136 kts 154°
2026-04-23 07:45 13.46635 -16.57419 1996 ft 136 kts 153°
2026-04-23 07:45 13.45754 -16.57051 1996 ft 136 kts 153°
2026-04-23 07:45 13.44863 -16.56681 1997 ft 136 kts 153°
2026-04-23 07:46 13.43991 -16.56318 2000 ft 136 kts 153°
2026-04-23 07:46 13.43112 -16.55954 1999 ft 135 kts 153°
2026-04-23 07:46 13.42230 -16.55586 1996 ft 135 kts 153°
2026-04-23 07:46 13.41363 -16.55227 1998 ft 134 kts 153°
2026-04-23 07:47 13.40487 -16.54865 1998 ft 134 kts 153°
2026-04-23 07:47 13.39624 -16.54506 1995 ft 134 kts 153°
2026-04-23 07:47 13.38760 -16.54147 2000 ft 134 kts 153°
2026-04-23 07:47 13.37884 -16.53784 1999 ft 135 kts 154°
2026-04-23 07:48 13.37010 -16.53423 1998 ft 135 kts 153°
2026-04-23 07:48 13.36131 -16.53060 2001 ft 135 kts 153°
2026-04-23 07:48 13.35261 -16.52699 2002 ft 135 kts 153°
2026-04-23 07:48 13.34380 -16.52334 2003 ft 135 kts 153°
2026-04-23 07:49 13.33501 -16.51970 2000 ft 135 kts 153°
2026-04-23 07:49 13.32624 -16.51606 1998 ft 134 kts 153°
2026-04-23 07:49 13.31757 -16.51247 2002 ft 134 kts 153°
2026-04-23 07:49 13.30885 -16.50885 1995 ft 133 kts 152°
2026-04-23 07:50 13.30027 -16.50530 1991 ft 130 kts 152°
2026-04-23 07:50 13.29199 -16.50184 1996 ft 126 kts 152°
2026-04-23 07:50 13.28377 -16.49843 1995 ft 125 kts 153°
2026-04-23 07:50 13.27578 -16.49512 1995 ft 125 kts 152°
2026-04-23 07:51 13.26764 -16.49175 1996 ft 125 kts 152°
2026-04-23 07:51 13.25961 -16.48842 1994 ft 123 kts 153°
2026-04-23 07:51 13.25162 -16.48512 1993 ft 123 kts 152°
2026-04-23 07:51 13.24355 -16.48179 1994 ft 123 kts 152°
2026-04-23 07:52 13.23558 -16.47848 1989 ft 122 kts 151°
2026-04-23 07:52 13.22783 -16.47527 1994 ft 120 kts 152°
2026-04-23 07:52 13.22003 -16.47204 1992 ft 118 kts 152°
2026-04-23 07:52 13.21248 -16.46892 1994 ft 117 kts 151°
2026-04-23 07:53 13.20483 -16.46575 1994 ft 117 kts 151°
2026-04-23 07:53 13.19721 -16.46258 1995 ft 117 kts 151°
2026-04-23 07:53 13.18959 -16.45941 1991 ft 117 kts 150°
2026-04-23 07:53 13.18193 -16.45667 1975 ft 119 kts 165°
2026-04-23 07:54 13.17377 -16.45763 1964 ft 116 kts 202°
2026-04-23 07:54 13.16778 -16.46250 1958 ft 106 kts 239°
2026-04-23 07:54 13.16566 -16.46908 1962 ft 91 kts 277°
2026-04-23 07:54 13.16768 -16.47476 1967 ft 80 kts 313°
2026-04-23 07:55 13.17234 -16.47750 1983 ft 76 kts 339°
2026-04-23 07:55 13.17734 -16.47939 1987 ft 77 kts 338°
2026-04-23 07:55 13.18250 -16.48135 1957 ft 81 kts 339°
2026-04-23 07:55 13.18796 -16.48350 1905 ft 84 kts 336°
2026-04-23 07:56 13.19313 -16.48642 1858 ft 86 kts 328°
2026-04-23 07:56 13.19802 -16.49008 1814 ft 88 kts 324°
2026-04-23 07:56 13.20269 -16.49421 1765 ft 89 kts 320°
2026-04-23 07:56 13.20722 -16.49868 1718 ft 89 kts 317°
2026-04-23 07:57 13.21156 -16.50328 1662 ft 89 kts 316°
2026-04-23 07:57 13.21578 -16.50792 1613 ft 90 kts 315°
2026-04-23 07:57 13.22004 -16.51273 1546 ft 90 kts 313°
2026-04-23 07:57 13.22344 -16.51800 1497 ft 85 kts 310°
2026-04-23 07:58 13.22717 -16.52228 1495 ft 78 kts 313°
2026-04-23 07:58 13.23062 -16.52641 1495 ft 74 kts 314°
2026-04-23 07:58 13.23402 -16.53046 1496 ft 73 kts 314°
2026-04-23 07:58 13.23735 -16.53439 1504 ft 73 kts 313°
2026-04-23 07:59 13.24069 -16.53834 1501 ft 73 kts 314°
2026-04-23 07:59 13.24400 -16.54226 1500 ft 72 kts 315°
2026-04-23 07:59 13.24731 -16.54614 1508 ft 72 kts 314°
2026-04-23 07:59 13.25067 -16.55010 1507 ft 73 kts 315°
2026-04-23 08:00 13.25410 -16.55411 1517 ft 77 kts 316°
2026-04-23 08:00 13.25782 -16.55839 1507 ft 84 kts 315°
2026-04-23 08:00 13.26181 -16.56302 1510 ft 86 kts 314°
2026-04-23 08:00 13.26576 -16.56768 1506 ft 87 kts 314°
2026-04-23 08:01 13.26977 -16.57239 1508 ft 87 kts 313°
2026-04-23 08:01 13.27382 -16.57714 1504 ft 87 kts 314°
2026-04-23 08:01 13.27780 -16.58184 1500 ft 88 kts 314°
2026-04-23 08:01 13.28202 -16.58677 1393 ft 96 kts 312°
2026-04-23 08:02 13.28654 -16.59210 1275 ft 100 kts 311°
2026-04-23 08:02 13.29119 -16.59757 1147 ft 103 kts 310°
2026-04-23 08:02 13.29600 -16.60325 1012 ft 105 kts 310°
2026-04-23 08:02 13.30085 -16.60894 872 ft 107 kts 309°
2026-04-23 08:03 13.30563 -16.61461 740 ft 103 kts 309°
2026-04-23 08:03 13.31056 -16.61959 601 ft 98 kts 308°
2026-04-23 08:03 13.31479 -16.62516 443 ft 98 kts 303°
2026-04-23 08:03 13.31930 -16.63040 312 ft 95 kts 307°
2026-04-23 08:04 13.32346 -16.63521 230 ft 85 kts 302°
2026-04-23 08:04 13.32705 -16.63939 156 ft 69 kts 300°
2026-04-23 08:04 13.32973 -16.64239 115 ft 40 kts 296°
2026-04-23 08:04 13.33130 -16.64445 132 ft 35 kts 299°
2026-04-23 08:05 13.33296 -16.64647 134 ft 40 kts 302°
2026-04-23 08:05 13.33483 -16.64880 141 ft 45 kts 300°
2026-04-23 08:05 13.33698 -16.65142 145 ft 46 kts 301°
2026-04-23 08:05 13.33898 -16.65373 142 ft 36 kts 300°
2026-04-23 08:06 13.34058 -16.65516 150 ft 24 kts 305°
2026-04-23 08:06 13.34164 -16.65519 101 ft 8 kts 47°
2026-04-23 08:06 13.34181 -16.65463 114 ft 4 kts 75°
2026-04-23 08:06 13.34176 -16.65476 104 ft 27 kts 26°
2026-04-23 08:07 13.34219 -16.65447 150 ft 9 kts 96°
2026-04-23 08:07 13.34205 -16.65385 138 ft 11 kts 63°
2026-04-23 08:07 13.34202 -16.65326 112 ft 7 kts 128°
2026-04-23 08:07 13.34178 -16.65301 97 ft 0 kts 127°